owner,sensor,date,latitude,longitude,vertical_datum,sea_water_temperature,qcFlag
Chevron,ioos:station:wmo:42385:1,2021-03-13T20:44:00Z,28.3400,-88.2657,29.4,22.4,11111222
Chevron,ioos:station:wmo:42385:1,2021-03-13T21:16:00Z,28.3400,-88.2657,29.4,22.5,11111222
Chevron,ioos:station:wmo:42385:1,2021-03-13T21:36:00Z,28.3400,-88.2657,29.4,22.4,11111222
Chevron,ioos:station:wmo:42385:1,2021-03-13T21:56:00Z,28.3400,-88.2657,29.4,22.6,11111222
Chevron,ioos:station:wmo:42385:1,2021-03-13T22:16:00Z,28.3400,-88.2657,29.4,22.4,11111222
Chevron,ioos:station:wmo:42385:1,2021-03-13T22:36:00Z,28.3400,-88.2657,29.4,22.4,11111222
Chevron,ioos:station:wmo:42385:1,2021-03-13T22:56:00Z,28.3400,-88.2657,29.4,22.4,11111222
Chevron,ioos:station:wmo:42385:1,2021-03-13T23:16:00Z,28.3400,-88.2657,29.4,22.6,11111222
Chevron,ioos:station:wmo:42385:1,2021-03-13T23:36:00Z,28.3400,-88.2657,29.4,22.6,11111222
Chevron,ioos:station:wmo:42385:1,2021-03-13T23:56:00Z,28.3400,-88.2657,29.4,22.5,11111222
Chevron,ioos:station:wmo:42385:1,2021-03-14T00:16:00Z,28.3400,-88.2657,29.4,22.4,11111222
Chevron,ioos:station:wmo:42385:1,2021-03-14T00:36:00Z,28.3400,-88.2657,29.4,22.5,11111222
Chevron,ioos:station:wmo:42385:1,2021-03-14T00:56:00Z,28.3400,-88.2657,29.4,22.8,11111222
Chevron,ioos:station:wmo:42385:1,2021-03-14T01:16:00Z,28.3400,-88.2657,29.4,22.8,11111222
Chevron,ioos:station:wmo:42385:1,2021-03-14T01:36:00Z,28.3400,-88.2657,29.4,22.9,11111222
Chevron,ioos:station:wmo:42385:1,2021-03-14T01:56:00Z,28.3400,-88.2657,29.4,22.8,11111222
Chevron,ioos:station:wmo:42385:1,2021-03-14T02:16:00Z,28.3400,-88.2657,29.4,22.9,11111222
Chevron,ioos:station:wmo:42385:1,2021-03-14T02:36:00Z,28.3400,-88.2657,29.4,22.8,11111222
Chevron,ioos:station:wmo:42385:1,2021-03-14T02:56:00Z,28.3400,-88.2657,29.4,22.9,11111222
Chevron,ioos:station:wmo:42385:1,2021-03-14T03:16:00Z,28.3400,-88.2657,29.4,23.0,11111222
Chevron,ioos:station:wmo:42385:1,2021-03-14T03:36:00Z,28.3400,-88.2657,29.4,23.1,11111222
Chevron,ioos:station:wmo:42385:1,2021-03-14T03:56:00Z,28.3400,-88.2657,29.4,22.8,11111222
Chevron,ioos:station:wmo:42385:1,2021-03-14T04:16:00Z,28.3400,-88.2657,29.4,23.1,11111222
Chevron,ioos:station:wmo:42385:1,2021-03-14T04:36:00Z,28.3400,-88.2657,29.4,22.8,11111222
Chevron,ioos:station:wmo:42385:1,2021-03-14T04:56:00Z,28.3400,-88.2657,29.4,22.8,11111222
Chevron,ioos:station:wmo:42385:1,2021-03-14T05:16:00Z,28.3400,-88.2657,29.4,23.5,11111222
Chevron,ioos:station:wmo:42385:1,2021-03-14T05:36:00Z,28.3400,-88.2657,29.4,22.6,11111222
Chevron,ioos:station:wmo:42385:1,2021-03-14T05:56:00Z,28.3400,-88.2657,29.4,22.8,11111222
Chevron,ioos:station:wmo:42385:1,2021-03-14T06:16:00Z,28.3400,-88.2657,29.4,22.8,11111222
Chevron,ioos:station:wmo:42385:1,2021-03-14T06:36:00Z,28.3400,-88.2657,29.4,22.9,11111222
Chevron,ioos:station:wmo:42385:1,2021-03-14T06:56:00Z,28.3400,-88.2657,29.4,23.1,11111222
Chevron,ioos:station:wmo:42385:1,2021-03-14T07:16:00Z,28.3400,-88.2657,29.4,23.0,11111222
Chevron,ioos:station:wmo:42385:1,2021-03-14T07:36:00Z,28.3400,-88.2657,29.4,22.9,11111222
Chevron,ioos:station:wmo:42385:1,2021-03-14T07:56:00Z,28.3400,-88.2657,29.4,23.1,11111222
Chevron,ioos:station:wmo:42385:1,2021-03-14T08:16:00Z,28.3400,-88.2657,29.4,23.0,11111222
Chevron,ioos:station:wmo:42385:1,2021-03-14T08:36:00Z,28.3400,-88.2657,29.4,22.7,11111222
Chevron,ioos:station:wmo:42385:1,2021-03-14T08:56:00Z,28.3400,-88.2657,29.4,22.9,11111222
Chevron,ioos:station:wmo:42385:1,2021-03-14T09:16:00Z,28.3400,-88.2657,29.4,23.1,11111222
Chevron,ioos:station:wmo:42385:1,2021-03-14T09:36:00Z,28.3400,-88.2657,29.4,23.1,11111222
Chevron,ioos:station:wmo:42385:1,2021-03-14T09:56:00Z,28.3400,-88.2657,29.4,22.9,11111222
Chevron,ioos:station:wmo:42385:1,2021-03-14T10:16:00Z,28.3400,-88.2657,29.4,23.0,11111222
Chevron,ioos:station:wmo:42385:1,2021-03-14T10:36:00Z,28.3400,-88.2657,29.4,22.8,11111222
Chevron,ioos:station:wmo:42385:1,2021-03-14T10:56:00Z,28.3400,-88.2657,29.4,23.1,11111222
Chevron,ioos:station:wmo:42385:1,2021-03-14T11:16:00Z,28.3400,-88.2657,29.4,23.1,11111222
Chevron,ioos:station:wmo:42385:1,2021-03-14T11:36:00Z,28.3400,-88.2657,29.4,22.2,11111222
Chevron,ioos:station:wmo:42385:1,2021-03-14T11:56:00Z,28.3400,-88.2657,29.4,22.8,11111222
Chevron,ioos:station:wmo:42385:1,2021-03-14T12:16:00Z,28.3400,-88.2657,29.4,22.7,11111222
Chevron,ioos:station:wmo:42385:1,2021-03-14T12:36:00Z,28.3400,-88.2657,29.4,22.8,11111222
Chevron,ioos:station:wmo:42385:1,2021-03-14T12:56:00Z,28.3400,-88.2657,29.4,22.7,11111222
Chevron,ioos:station:wmo:42385:1,2021-03-14T13:16:00Z,28.3400,-88.2657,29.4,22.8,11111222
Chevron,ioos:station:wmo:42385:1,2021-03-14T13:36:00Z,28.3400,-88.2657,29.4,22.8,11111222
Chevron,ioos:station:wmo:42385:1,2021-03-14T13:56:00Z,28.3400,-88.2657,29.4,22.6,11111222
Chevron,ioos:station:wmo:42385:1,2021-03-14T14:16:00Z,28.3400,-88.2657,29.4,22.7,11111222
Chevron,ioos:station:wmo:42385:1,2021-03-14T14:36:00Z,28.3400,-88.2657,29.4,22.8,11111222
Chevron,ioos:station:wmo:42385:1,2021-03-14T14:56:00Z,28.3400,-88.2657,29.4,22.7,11111222
Chevron,ioos:station:wmo:42385:1,2021-03-14T15:16:00Z,28.3400,-88.2657,29.4,22.7,11111222
Chevron,ioos:station:wmo:42385:1,2021-03-14T15:36:00Z,28.3400,-88.2657,29.4,22.9,11111222
Chevron,ioos:station:wmo:42385:1,2021-03-14T15:56:00Z,28.3400,-88.2657,29.4,22.7,11111222
Chevron,ioos:station:wmo:42385:1,2021-03-14T16:16:00Z,28.3400,-88.2657,29.4,22.8,11111222
Chevron,ioos:station:wmo:42385:1,2021-03-14T16:36:00Z,28.3400,-88.2657,29.4,22.9,11111222
Chevron,ioos:station:wmo:42385:1,2021-03-14T16:56:00Z,28.3400,-88.2657,29.4,22.9,11111222
Chevron,ioos:station:wmo:42385:1,2021-03-14T17:16:00Z,28.3400,-88.2657,29.4,22.8,11111222
Chevron,ioos:station:wmo:42385:1,2021-03-14T17:36:00Z,28.3400,-88.2657,29.4,22.8,11111222
Chevron,ioos:station:wmo:42385:1,2021-03-14T17:56:00Z,28.3400,-88.2657,29.4,22.9,11111222
Chevron,ioos:station:wmo:42385:1,2021-03-14T18:16:00Z,28.3400,-88.2657,29.4,22.7,11111222
Chevron,ioos:station:wmo:42385:1,2021-03-14T18:36:00Z,28.3400,-88.2657,29.4,22.8,11111222
Chevron,ioos:station:wmo:42385:1,2021-03-14T18:56:00Z,28.3400,-88.2657,29.4,22.9,11111222
Chevron,ioos:station:wmo:42385:1,2021-03-14T19:16:00Z,28.3400,-88.2657,29.4,23.0,11111222
Chevron,ioos:station:wmo:42385:1,2021-03-14T19:36:00Z,28.3400,-88.2657,29.4,23.0,11111222
Chevron,ioos:station:wmo:42385:1,2021-03-14T19:56:00Z,28.3400,-88.2657,29.4,22.8,11111222
Chevron,ioos:station:wmo:42385:1,2021-03-14T20:16:00Z,28.3400,-88.2657,29.4,22.9,11111222
Chevron,ioos:station:wmo:42385:1,2021-03-14T20:36:00Z,28.3400,-88.2657,29.4,22.8,11111222
Chevron,ioos:station:wmo:42385:1,2021-03-14T20:56:00Z,28.3400,-88.2657,29.4,22.7,11111222
Chevron,ioos:station:wmo:42385:1,2021-03-14T21:16:00Z,28.3400,-88.2657,29.4,22.8,11111222
Chevron,ioos:station:wmo:42385:1,2021-03-14T21:36:00Z,28.3400,-88.2657,29.4,22.6,11111222
Chevron,ioos:station:wmo:42385:1,2021-03-14T21:56:00Z,28.3400,-88.2657,29.4,22.7,11111222
Chevron,ioos:station:wmo:42385:1,2021-03-14T22:16:00Z,28.3400,-88.2657,29.4,22.7,11111222
Chevron,ioos:station:wmo:42385:1,2021-03-14T22:36:00Z,28.3400,-88.2657,29.4,23.0,11111222
Chevron,ioos:station:wmo:42385:1,2021-03-14T22:56:00Z,28.3400,-88.2657,29.4,22.8,11111222
Chevron,ioos:station:wmo:42385:1,2021-03-14T23:16:00Z,28.3400,-88.2657,29.4,22.9,11111222
Chevron,ioos:station:wmo:42385:1,2021-03-14T23:36:00Z,28.3400,-88.2657,29.4,22.9,11111222
Chevron,ioos:station:wmo:42385:1,2021-03-14T23:56:00Z,28.3400,-88.2657,29.4,22.9,11111222
Chevron,ioos:station:wmo:42385:1,2021-03-15T00:16:00Z,28.3400,-88.2657,29.4,22.7,11111222
Chevron,ioos:station:wmo:42385:1,2021-03-15T00:36:00Z,28.3400,-88.2657,29.4,22.9,11111222
Chevron,ioos:station:wmo:42385:1,2021-03-15T00:56:00Z,28.3400,-88.2657,29.4,22.8,11111222
Chevron,ioos:station:wmo:42385:1,2021-03-15T01:16:00Z,28.3400,-88.2657,29.4,22.7,11111222
Chevron,ioos:station:wmo:42385:1,2021-03-15T01:36:00Z,28.3400,-88.2657,29.4,22.8,11111222
Chevron,ioos:station:wmo:42385:1,2021-03-15T01:56:00Z,28.3400,-88.2657,29.4,22.7,11111222
Chevron,ioos:station:wmo:42385:1,2021-03-15T02:16:00Z,28.3400,-88.2657,29.4,22.7,11111222
Chevron,ioos:station:wmo:42385:1,2021-03-15T02:36:00Z,28.3400,-88.2657,29.4,22.7,11111222
Chevron,ioos:station:wmo:42385:1,2021-03-15T02:56:00Z,28.3400,-88.2657,29.4,22.8,11111222
Chevron,ioos:station:wmo:42385:1,2021-03-15T03:16:00Z,28.3400,-88.2657,29.4,22.7,11111222
Chevron,ioos:station:wmo:42385:1,2021-03-15T03:36:00Z,28.3400,-88.2657,29.4,22.6,11111222
Chevron,ioos:station:wmo:42385:1,2021-03-15T03:56:00Z,28.3400,-88.2657,29.4,22.8,11111222
Chevron,ioos:station:wmo:42385:1,2021-03-15T04:16:00Z,28.3400,-88.2657,29.4,22.8,11111222
Chevron,ioos:station:wmo:42385:1,2021-03-15T04:36:00Z,28.3400,-88.2657,29.4,22.6,11111222
Chevron,ioos:station:wmo:42385:1,2021-03-15T04:56:00Z,28.3400,-88.2657,29.4,22.6,11111222
Chevron,ioos:station:wmo:42385:1,2021-03-15T05:16:00Z,28.3400,-88.2657,29.4,22.8,11111222
Chevron,ioos:station:wmo:42385:1,2021-03-15T05:36:00Z,28.3400,-88.2657,29.4,22.4,11111222
Chevron,ioos:station:wmo:42385:1,2021-03-15T05:56:00Z,28.3400,-88.2657,29.4,22.7,11111222
Chevron,ioos:station:wmo:42385:1,2021-03-15T06:16:00Z,28.3400,-88.2657,29.4,22.7,11111222
Chevron,ioos:station:wmo:42385:1,2021-03-15T06:36:00Z,28.3400,-88.2657,29.4,22.6,11111222
Chevron,ioos:station:wmo:42385:1,2021-03-15T06:56:00Z,28.3400,-88.2657,29.4,22.7,11111222
Chevron,ioos:station:wmo:42385:1,2021-03-15T07:16:00Z,28.3400,-88.2657,29.4,22.6,11111222
Chevron,ioos:station:wmo:42385:1,2021-03-15T07:36:00Z,28.3400,-88.2657,29.4,22.6,11111222
Chevron,ioos:station:wmo:42385:1,2021-03-15T07:56:00Z,28.3400,-88.2657,29.4,22.3,11111222
Chevron,ioos:station:wmo:42385:1,2021-03-15T08:16:00Z,28.3400,-88.2657,29.4,22.8,11111222
Chevron,ioos:station:wmo:42385:1,2021-03-15T08:36:00Z,28.3400,-88.2657,29.4,22.6,11111222
Chevron,ioos:station:wmo:42385:1,2021-03-15T08:56:00Z,28.3400,-88.2657,29.4,22.9,11111222
Chevron,ioos:station:wmo:42385:1,2021-03-15T09:16:00Z,28.3400,-88.2657,29.4,22.9,11111222
Chevron,ioos:station:wmo:42385:1,2021-03-15T09:36:00Z,28.3400,-88.2657,29.4,22.8,11111222
Chevron,ioos:station:wmo:42385:1,2021-03-15T09:56:00Z,28.3400,-88.2657,29.4,23.0,11111222
Chevron,ioos:station:wmo:42385:1,2021-03-15T10:16:00Z,28.3400,-88.2657,29.4,22.7,11111222
Chevron,ioos:station:wmo:42385:1,2021-03-15T10:36:00Z,28.3400,-88.2657,29.4,22.6,11111222
Chevron,ioos:station:wmo:42385:1,2021-03-15T10:56:00Z,28.3400,-88.2657,29.4,22.1,11111222
Chevron,ioos:station:wmo:42385:1,2021-03-15T11:16:00Z,28.3400,-88.2657,29.4,21.7,11111222
Chevron,ioos:station:wmo:42385:1,2021-03-15T11:36:00Z,28.3400,-88.2657,29.4,21.3,11111222
Chevron,ioos:station:wmo:42385:1,2021-03-15T11:56:00Z,28.3400,-88.2657,29.4,21.4,11111222
Chevron,ioos:station:wmo:42385:1,2021-03-15T12:16:00Z,28.3400,-88.2657,29.4,21.5,11111222
Chevron,ioos:station:wmo:42385:1,2021-03-15T12:36:00Z,28.3400,-88.2657,29.4,21.6,11111222
Chevron,ioos:station:wmo:42385:1,2021-03-15T12:56:00Z,28.3400,-88.2657,29.4,21.4,11111222
Chevron,ioos:station:wmo:42385:1,2021-03-15T13:16:00Z,28.3400,-88.2657,29.4,21.3,11111222
Chevron,ioos:station:wmo:42385:1,2021-03-15T13:36:00Z,28.3400,-88.2657,29.4,21.2,11111222
Chevron,ioos:station:wmo:42385:1,2021-03-15T13:56:00Z,28.3400,-88.2657,29.4,21.3,11111222
Chevron,ioos:station:wmo:42385:1,2021-03-15T14:16:00Z,28.3400,-88.2657,29.4,21.1,11111222
Chevron,ioos:station:wmo:42385:1,2021-03-15T14:36:00Z,28.3400,-88.2657,29.4,21.2,11111222
Chevron,ioos:station:wmo:42385:1,2021-03-15T14:56:00Z,28.3400,-88.2657,29.4,21.3,11111222
Chevron,ioos:station:wmo:42385:1,2021-03-15T15:16:00Z,28.3400,-88.2657,29.4,21.3,11111222
Chevron,ioos:station:wmo:42385:1,2021-03-15T15:36:00Z,28.3400,-88.2657,29.4,21.3,11111222
Chevron,ioos:station:wmo:42385:1,2021-03-15T15:56:00Z,28.3400,-88.2657,29.4,20.9,11111222
Chevron,ioos:station:wmo:42385:1,2021-03-15T16:16:00Z,28.3400,-88.2657,29.4,21.2,11111222
Chevron,ioos:station:wmo:42385:1,2021-03-15T16:36:00Z,28.3400,-88.2657,29.4,21.4,11111222
Chevron,ioos:station:wmo:42385:1,2021-03-15T16:56:00Z,28.3400,-88.2657,29.4,21.6,11111222
Chevron,ioos:station:wmo:42385:1,2021-03-15T17:16:00Z,28.3400,-88.2657,29.4,21.4,11111222
Chevron,ioos:station:wmo:42385:1,2021-03-15T17:36:00Z,28.3400,-88.2657,29.4,21.4,11111222
Chevron,ioos:station:wmo:42385:1,2021-03-15T17:56:00Z,28.3400,-88.2657,29.4,21.7,11111222
Chevron,ioos:station:wmo:42385:1,2021-03-15T18:16:00Z,28.3400,-88.2657,29.4,21.7,11111222
Chevron,ioos:station:wmo:42385:1,2021-03-15T18:36:00Z,28.3400,-88.2657,29.4,21.5,11111222
Chevron,ioos:station:wmo:42385:1,2021-03-15T18:56:00Z,28.3400,-88.2657,29.4,21.7,11111222
Chevron,ioos:station:wmo:42385:1,2021-03-15T19:16:00Z,28.3400,-88.2657,29.4,21.7,11111222
Chevron,ioos:station:wmo:42385:1,2021-03-15T19:36:00Z,28.3400,-88.2657,29.4,21.9,11111222
Chevron,ioos:station:wmo:42385:1,2021-03-15T19:56:00Z,28.3400,-88.2657,29.4,21.8,11111222
Chevron,ioos:station:wmo:42385:1,2021-03-15T20:16:00Z,28.3400,-88.2657,29.4,22.0,11111222
Chevron,ioos:station:wmo:42385:1,2021-03-15T20:36:00Z,28.3400,-88.2657,29.4,21.8,11111222
Chevron,ioos:station:wmo:42385:1,2021-03-15T20:56:00Z,28.3400,-88.2657,29.4,22.0,11111222
Chevron,ioos:station:wmo:42385:1,2021-03-15T21:16:00Z,28.3400,-88.2657,29.4,21.8,11111222
Chevron,ioos:station:wmo:42385:1,2021-03-15T21:36:00Z,28.3400,-88.2657,29.4,21.9,11111222
Chevron,ioos:station:wmo:42385:1,2021-03-15T21:56:00Z,28.3400,-88.2657,29.4,21.8,11111222
Chevron,ioos:station:wmo:42385:1,2021-03-15T22:16:00Z,28.3400,-88.2657,29.4,21.7,11111222
Chevron,ioos:station:wmo:42385:1,2021-03-15T22:36:00Z,28.3400,-88.2657,29.4,21.8,11111222
Chevron,ioos:station:wmo:42385:1,2021-03-15T22:56:00Z,28.3400,-88.2657,29.4,21.8,11111222
Chevron,ioos:station:wmo:42385:1,2021-03-15T23:16:00Z,28.3400,-88.2657,29.4,21.7,11111222
Chevron,ioos:station:wmo:42385:1,2021-03-15T23:36:00Z,28.3400,-88.2657,29.4,21.4,11111222
Chevron,ioos:station:wmo:42385:1,2021-03-15T23:56:00Z,28.3400,-88.2657,29.4,21.4,11111222
Chevron,ioos:station:wmo:42385:1,2021-03-16T00:16:00Z,28.3400,-88.2657,29.4,21.5,11111222
Chevron,ioos:station:wmo:42385:1,2021-03-16T00:36:00Z,28.3400,-88.2657,29.4,21.2,11111222
Chevron,ioos:station:wmo:42385:1,2021-03-16T00:56:00Z,28.3400,-88.2657,29.4,21.2,11111222
Chevron,ioos:station:wmo:42385:1,2021-03-16T01:16:00Z,28.3400,-88.2657,29.4,21.8,11111222
Chevron,ioos:station:wmo:42385:1,2021-03-16T01:36:00Z,28.3400,-88.2657,29.4,21.1,11111222
Chevron,ioos:station:wmo:42385:1,2021-03-16T01:56:00Z,28.3400,-88.2657,29.4,21.0,11111222
Chevron,ioos:station:wmo:42385:1,2021-03-16T02:16:00Z,28.3400,-88.2657,29.4,21.2,11111222
Chevron,ioos:station:wmo:42385:1,2021-03-16T02:36:00Z,28.3400,-88.2657,29.4,20.8,11111222
Chevron,ioos:station:wmo:42385:1,2021-03-16T02:56:00Z,28.3400,-88.2657,29.4,20.9,11111222
Chevron,ioos:station:wmo:42385:1,2021-03-16T03:16:00Z,28.3400,-88.2657,29.4,20.9,11111222
Chevron,ioos:station:wmo:42385:1,2021-03-16T03:36:00Z,28.3400,-88.2657,29.4,20.7,11111222
Chevron,ioos:station:wmo:42385:1,2021-03-16T03:56:00Z,28.3400,-88.2657,29.4,20.8,11111222
Chevron,ioos:station:wmo:42385:1,2021-03-16T04:16:00Z,28.3400,-88.2657,29.4,20.9,11111222
Chevron,ioos:station:wmo:42385:1,2021-03-16T04:36:00Z,28.3400,-88.2657,29.4,20.9,11111222
Chevron,ioos:station:wmo:42385:1,2021-03-16T04:56:00Z,28.3400,-88.2657,29.4,21.1,11111222
Chevron,ioos:station:wmo:42385:1,2021-03-16T05:16:00Z,28.3400,-88.2657,29.4,20.7,11111222
Chevron,ioos:station:wmo:42385:1,2021-03-16T05:36:00Z,28.3400,-88.2657,29.4,20.7,11111222
Chevron,ioos:station:wmo:42385:1,2021-03-16T05:56:00Z,28.3400,-88.2657,29.4,20.7,11111222
Chevron,ioos:station:wmo:42385:1,2021-03-16T06:16:00Z,28.3400,-88.2657,29.4,20.5,11111222
Chevron,ioos:station:wmo:42385:1,2021-03-16T06:36:00Z,28.3400,-88.2657,29.4,20.6,11111222
Chevron,ioos:station:wmo:42385:1,2021-03-16T06:56:00Z,28.3400,-88.2657,29.4,20.5,11111222
Chevron,ioos:station:wmo:42385:1,2021-03-16T07:16:00Z,28.3400,-88.2657,29.4,20.5,11111222
Chevron,ioos:station:wmo:42385:1,2021-03-16T07:36:00Z,28.3400,-88.2657,29.4,20.5,11111222
Chevron,ioos:station:wmo:42385:1,2021-03-16T07:56:00Z,28.3400,-88.2657,29.4,20.4,11111222
Chevron,ioos:station:wmo:42385:1,2021-03-16T08:16:00Z,28.3400,-88.2657,29.4,20.7,11111222
Chevron,ioos:station:wmo:42385:1,2021-03-16T08:36:00Z,28.3400,-88.2657,29.4,20.6,11111222
Chevron,ioos:station:wmo:42385:1,2021-03-16T08:56:00Z,28.3400,-88.2657,29.4,20.7,11111222
Chevron,ioos:station:wmo:42385:1,2021-03-16T09:16:00Z,28.3400,-88.2657,29.4,21.0,11111222
Chevron,ioos:station:wmo:42385:1,2021-03-16T09:36:00Z,28.3400,-88.2657,29.4,20.5,11111222
Chevron,ioos:station:wmo:42385:1,2021-03-16T09:56:00Z,28.3400,-88.2657,29.4,20.7,11111222
Chevron,ioos:station:wmo:42385:1,2021-03-16T10:16:00Z,28.3400,-88.2657,29.4,20.6,11111222
Chevron,ioos:station:wmo:42385:1,2021-03-16T10:36:00Z,28.3400,-88.2657,29.4,20.4,11111222
Chevron,ioos:station:wmo:42385:1,2021-03-16T10:56:00Z,28.3400,-88.2657,29.4,20.4,11111222
Chevron,ioos:station:wmo:42385:1,2021-03-16T11:16:00Z,28.3400,-88.2657,29.4,20.5,11111222
Chevron,ioos:station:wmo:42385:1,2021-03-16T11:36:00Z,28.3400,-88.2657,29.4,20.5,11111222
Chevron,ioos:station:wmo:42385:1,2021-03-16T11:56:00Z,28.3400,-88.2657,29.4,20.6,11111222
Chevron,ioos:station:wmo:42385:1,2021-03-16T12:16:00Z,28.3400,-88.2657,29.4,20.8,11111222
Chevron,ioos:station:wmo:42385:1,2021-03-16T12:36:00Z,28.3400,-88.2657,29.4,21.0,11111222
Chevron,ioos:station:wmo:42385:1,2021-03-16T12:56:00Z,28.3400,-88.2657,29.4,20.8,11111222
Chevron,ioos:station:wmo:42385:1,2021-03-16T13:16:00Z,28.3400,-88.2657,29.4,20.8,11111222
Chevron,ioos:station:wmo:42385:1,2021-03-16T13:36:00Z,28.3400,-88.2657,29.4,20.5,11111222
Chevron,ioos:station:wmo:42385:1,2021-03-16T13:56:00Z,28.3400,-88.2657,29.4,20.8,11111222
Chevron,ioos:station:wmo:42385:1,2021-03-16T14:16:00Z,28.3400,-88.2657,29.4,21.2,11111222
Chevron,ioos:station:wmo:42385:1,2021-03-16T14:36:00Z,28.3400,-88.2657,29.4,21.0,11111222
Chevron,ioos:station:wmo:42385:1,2021-03-16T14:56:00Z,28.3400,-88.2657,29.4,21.1,11111222
Chevron,ioos:station:wmo:42385:1,2021-03-16T15:16:00Z,28.3400,-88.2657,29.4,21.0,11111222
Chevron,ioos:station:wmo:42385:1,2021-03-16T15:36:00Z,28.3400,-88.2657,29.4,21.0,11111222
Chevron,ioos:station:wmo:42385:1,2021-03-16T15:56:00Z,28.3400,-88.2657,29.4,21.2,11111222
Chevron,ioos:station:wmo:42385:1,2021-03-16T16:16:00Z,28.3400,-88.2657,29.4,21.0,11111222
Chevron,ioos:station:wmo:42385:1,2021-03-16T16:36:00Z,28.3400,-88.2657,29.4,20.9,11111222
Chevron,ioos:station:wmo:42385:1,2021-03-16T16:56:00Z,28.3400,-88.2657,29.4,21.4,11111222
Chevron,ioos:station:wmo:42385:1,2021-03-16T17:16:00Z,28.3400,-88.2657,29.4,21.2,11111222
Chevron,ioos:station:wmo:42385:1,2021-03-16T17:36:00Z,28.3400,-88.2657,29.4,21.2,11111222
Chevron,ioos:station:wmo:42385:1,2021-03-16T17:56:00Z,28.3400,-88.2657,29.4,21.1,11111222
Chevron,ioos:station:wmo:42385:1,2021-03-16T18:16:00Z,28.3400,-88.2657,29.4,21.0,11111222
Chevron,ioos:station:wmo:42385:1,2021-03-16T18:36:00Z,28.3400,-88.2657,29.4,21.1,11111222
Chevron,ioos:station:wmo:42385:1,2021-03-16T18:56:00Z,28.3400,-88.2657,29.4,21.0,11111222
Chevron,ioos:station:wmo:42385:1,2021-03-16T19:16:00Z,28.3400,-88.2657,29.4,21.2,11111222
Chevron,ioos:station:wmo:42385:1,2021-03-16T19:36:00Z,28.3400,-88.2657,29.4,21.3,11111222
Chevron,ioos:station:wmo:42385:1,2021-03-16T19:56:00Z,28.3400,-88.2657,29.4,21.4,11111222
Chevron,ioos:station:wmo:42385:1,2021-03-16T20:16:00Z,28.3400,-88.2657,29.4,21.3,11111222
Chevron,ioos:station:wmo:42385:1,2021-03-16T20:36:00Z,28.3400,-88.2657,29.4,21.3,11111222
Chevron,ioos:station:wmo:42385:1,2021-03-16T20:56:00Z,28.3400,-88.2657,29.4,21.5,11111222
Chevron,ioos:station:wmo:42385:1,2021-03-16T21:16:00Z,28.3400,-88.2657,29.4,21.3,11111222
Chevron,ioos:station:wmo:42385:1,2021-03-16T21:36:00Z,28.3400,-88.2657,29.4,21.3,11111222
Chevron,ioos:station:wmo:42385:1,2021-03-16T21:56:00Z,28.3400,-88.2657,29.4,21.4,11111222
Chevron,ioos:station:wmo:42385:1,2021-03-16T22:16:00Z,28.3400,-88.2657,29.4,21.4,11111222
Chevron,ioos:station:wmo:42385:1,2021-03-16T22:36:00Z,28.3400,-88.2657,29.4,21.6,11111222
Chevron,ioos:station:wmo:42385:1,2021-03-16T22:57:00Z,28.3400,-88.2657,29.4,21.7,11111222
Chevron,ioos:station:wmo:42385:1,2021-03-16T23:17:00Z,28.3400,-88.2657,29.4,21.7,11111222
Chevron,ioos:station:wmo:42385:1,2021-03-16T23:36:00Z,28.3400,-88.2657,29.4,21.7,11111222
Chevron,ioos:station:wmo:42385:1,2021-03-16T23:56:00Z,28.3400,-88.2657,29.4,21.7,11111222
Chevron,ioos:station:wmo:42385:1,2021-03-17T00:16:00Z,28.3400,-88.2657,29.4,22.5,11111222
Chevron,ioos:station:wmo:42385:1,2021-03-17T00:36:00Z,28.3400,-88.2657,29.4,21.7,11111222
Chevron,ioos:station:wmo:42385:1,2021-03-17T00:56:00Z,28.3400,-88.2657,29.4,21.8,11111222
Chevron,ioos:station:wmo:42385:1,2021-03-17T01:16:00Z,28.3400,-88.2657,29.4,21.8,11111222
Chevron,ioos:station:wmo:42385:1,2021-03-17T01:36:00Z,28.3400,-88.2657,29.4,21.6,11111222
Chevron,ioos:station:wmo:42385:1,2021-03-17T01:56:00Z,28.3400,-88.2657,29.4,21.9,11111222
Chevron,ioos:station:wmo:42385:1,2021-03-17T02:16:00Z,28.3400,-88.2657,29.4,21.6,11111222
Chevron,ioos:station:wmo:42385:1,2021-03-17T02:36:00Z,28.3400,-88.2657,29.4,22.1,11111222
Chevron,ioos:station:wmo:42385:1,2021-03-17T02:56:00Z,28.3400,-88.2657,29.4,22.4,11111222
Chevron,ioos:station:wmo:42385:1,2021-03-17T03:16:00Z,28.3400,-88.2657,29.4,22.3,11111222
Chevron,ioos:station:wmo:42385:1,2021-03-17T03:36:00Z,28.3400,-88.2657,29.4,22.5,11111222
Chevron,ioos:station:wmo:42385:1,2021-03-17T03:56:00Z,28.3400,-88.2657,29.4,22.4,11111222
Chevron,ioos:station:wmo:42385:1,2021-03-17T04:16:00Z,28.3400,-88.2657,29.4,22.2,11111222
Chevron,ioos:station:wmo:42385:1,2021-03-17T04:36:00Z,28.3400,-88.2657,29.4,22.4,11111222
Chevron,ioos:station:wmo:42385:1,2021-03-17T04:56:00Z,28.3400,-88.2657,29.4,22.2,11111222
Chevron,ioos:station:wmo:42385:1,2021-03-17T05:16:00Z,28.3400,-88.2657,29.4,22.3,11111222
Chevron,ioos:station:wmo:42385:1,2021-03-17T05:36:00Z,28.3400,-88.2657,29.4,22.2,11111222
Chevron,ioos:station:wmo:42385:1,2021-03-17T05:56:00Z,28.3400,-88.2657,29.4,22.3,11111222
Chevron,ioos:station:wmo:42385:1,2021-03-17T06:16:00Z,28.3400,-88.2657,29.4,22.2,11111222
Chevron,ioos:station:wmo:42385:1,2021-03-17T06:36:00Z,28.3400,-88.2657,29.4,22.2,11111222
Chevron,ioos:station:wmo:42385:1,2021-03-17T06:56:00Z,28.3400,-88.2657,29.4,22.5,11111222
Chevron,ioos:station:wmo:42385:1,2021-03-17T07:16:00Z,28.3400,-88.2657,29.4,22.4,11111222
Chevron,ioos:station:wmo:42385:1,2021-03-17T07:36:00Z,28.3400,-88.2657,29.4,22.2,11111222
Chevron,ioos:station:wmo:42385:1,2021-03-17T07:56:00Z,28.3400,-88.2657,29.4,22.6,11111222
Chevron,ioos:station:wmo:42385:1,2021-03-17T08:16:00Z,28.3400,-88.2657,29.4,22.4,11111222
Chevron,ioos:station:wmo:42385:1,2021-03-17T08:36:00Z,28.3400,-88.2657,29.4,22.4,11111222
Chevron,ioos:station:wmo:42385:1,2021-03-17T08:56:00Z,28.3400,-88.2657,29.4,22.6,11111222
Chevron,ioos:station:wmo:42385:1,2021-03-17T09:16:00Z,28.3400,-88.2657,29.4,22.4,11111222
Chevron,ioos:station:wmo:42385:1,2021-03-17T09:36:00Z,28.3400,-88.2657,29.4,22.4,11111222
Chevron,ioos:station:wmo:42385:1,2021-03-17T09:56:00Z,28.3400,-88.2657,29.4,22.6,11111222
Chevron,ioos:station:wmo:42385:1,2021-03-17T10:16:00Z,28.3400,-88.2657,29.4,22.7,11111222
Chevron,ioos:station:wmo:42385:1,2021-03-17T10:36:00Z,28.3400,-88.2657,29.4,22.3,11111222
Chevron,ioos:station:wmo:42385:1,2021-03-17T10:56:00Z,28.3400,-88.2657,29.4,22.6,11111222
Chevron,ioos:station:wmo:42385:1,2021-03-17T11:16:00Z,28.3400,-88.2657,29.4,22.5,11111222
Chevron,ioos:station:wmo:42385:1,2021-03-17T11:36:00Z,28.3400,-88.2657,29.4,22.2,11111222
Chevron,ioos:station:wmo:42385:1,2021-03-17T11:56:00Z,28.3400,-88.2657,29.4,22.4,11111222